Regional Weather Roundup
Issued by NWS

Home | Current Version | Previous Version | Graphics & Text | Print | Product List | Glossary Off
Versions: 1 2 3 4 5 6 7 8 9 10 11 12 13 14 15 16 17 18 19 20 21 22 23 24 25 26 27 28 29 30 31 32 33 34 35 36 37 38 39 40 41 42 43 44 45 46 47 48 49 50

000
ASUS43 KMPX 020410
RWRMN
WEATHER ROUNDUP FOR MINNESOTA
NATIONAL WEATHER SERVICE TWIN CITIES/CHANHASSEN MN
1100 PM CDT FRI AUG 01 2014


NOTE: "FAIR" INDICATES FEW OR NO CLOUDS BELOW 12,000 FEET WITH NO
SIGNIFICANT WEATHER AND/OR OBSTRUCTIONS TO VISIBILITY. N/A MEANS
CURRENT SKY AND/OR WEATHER CONDITIONS ARE NOT AVAILABLE.

MNZ060>063-068>070-020500-
   Twin Cities Metro

CITY           SKY/WX    TMP DP  RH WIND       PRES   REMARKS
TWIN CITIES    PTCLDY    73  59  61 SE3       30.07S
ST PAUL        PTCLDY    66  64  93 CALM      30.07S
CRYSTAL        CLEAR     71  61  70 CALM      30.06S
BLAINE         CLEAR     70  63  78 CALM      30.07F
LAKEVILLE      CLEAR     64  63  94 S3        30.08S
EDEN PRAIRIE   CLEAR     71  63  75 CALM      30.06F
SOUTH ST PAUL  CLEAR     67  64  91 CALM      30.07F FOG
LAKE ELMO      FAIR      64  63  94 CALM      30.08F
$$
MNZ001>005-007-008-013>017-022>024-027-028-020500-
   Northwest Minnesota

CITY           SKY/WX    TMP DP  RH WIND       PRES   REMARKS
BEMIDJI        CLEAR     59  54  85 CALM      30.09S
HALLOCK        CLEAR     66  61  82 SW3       30.05S
ROSEAU         CLEAR     63  57  82 S6        30.06F
WARROAD        CLEAR     64  59  82 S3        30.06F
THIEF RVR FALL CLEAR     64  57  77 CALM      30.08S
CROOKSTON      CLEAR     64  61  88 CALM      30.08S
FOSSTON        CLEAR     57  50  77 CALM      30.09S HAZE
DETROIT LAKES  CLEAR     64  61  88 CALM      30.11R
MOORHEAD       CLEAR     66  64  94 CALM      30.08R
PARK RAPIDS    CLEAR     62  56  80 CALM      30.09S
$$
MNZ006-009>011-018-025>026-020500-
   North Central Minnesota

CITY           SKY/WX    TMP DP  RH WIND       PRES   REMARKS
BAUDETTE       CLEAR     58  53  84 SW3       30.08F
FLAG ISLAND    CLEAR     70  57  64 CALM      30.04F
INTL FALLS     CLEAR     52  50  93 CALM      30.07S
WASKISH        CLEAR     55  52  88 CALM      30.08F
BIG FORK       CLEAR     57  55  94 VRB1      30.09S
LONGVILLE      CLEAR     59  57  94 CALM      30.08S FOG
GRAND RAPIDS   CLEAR     61  57  88 CALM      30.09R
CRANE LAKE     CLEAR     52  52 100 CALM      30.11R
ORR            CLEAR     54  50  87 CALM      30.07S
COOK           CLEAR     54  54 100 CALM      30.10R
$$
MNZ012-019>021-037-020500-
   Northeast Minnesota

CITY           SKY/WX    TMP DP  RH WIND       PRES   REMARKS
DULUTH         CLEAR     58  50  75 E7        30.10S
ELY            CLEAR     54  50  87 CALM      30.10S
HIBBING        CLEAR     57  55  93 CALM      30.09S FOG
EVELETH        FOG       57  55  94 CALM      30.11S VSB 3/4
DULUTH HARBOR  CLEAR     57  54  88 NE7       30.10F
TWO HARBORS    CLEAR     55  50  82 CALM      30.09S
SILVER BAY     CLEAR     52  52 100 CALM      30.10S
GRAND MARAIS     N/A     53  50  89 NW3       30.11R
G MARAIS ARPRT CLEAR     50  46  87 CALM      30.14R
$$
MNZ029>031-032-039>041-046>048-054>057-064-020500-
   West Central Minnesota

CITY           SKY/WX    TMP DP  RH WIND       PRES   REMARKS
FERGUS FALLS   PTCLDY    70  55  60 CALM      30.07S
WHEATON        PTCLDY    66  61  82 CALM      30.09R
MORRIS         PTCLDY    64  63  94 CALM      30.07S
ALEXANDRIA     CLEAR     68  62  81 CALM      30.10R
ELBOW LAKE     FAIR      69  61  76 CALM      30.08R
WADENA         CLEAR     61  57  88 CALM      30.08S
GLENWOOD       CLEAR     66  61  82 CALM      30.09S
APPLETON       PTCLDY    68  64  88 CALM      30.07R
BENSON         CLEAR     63  61  94 CALM      30.08R
ORTONVILLE     PTCLDY    70  63  78 SE5       30.07S
MADISON        PTCLDY    70  63  78 CALM      30.08S
WILLMAR        FAIR      66  61  82 CALM      30.10R
$$
MNZ033>034-036-042>043-049>051-058-059-020500-
   Central Minnesota

CITY           SKY/WX    TMP DP  RH WIND       PRES   REMARKS
ST CLOUD       CLEAR     66  60  81 CALM      30.07S
SAUK CENTRE    FAIR      62  59  89 CALM      30.08S
PAYNESVILLE    CLEAR     61  61 100 CALM      30.09R FOG
AITKIN         CLEAR     61  55  82 CALM      30.07S HAZE
PINE RIVER     CLEAR     61  57  88 CALM      30.11S
BRAINERD       CLEAR     62  61  96 CALM      30.08S
STAPLES        CLEAR     63  59  88 CALM      30.08S
LONG PRAIRIE   FAIR      63  61  94 CALM      30.08F
LITTLE FALLS   CLEAR     61  57  88 CALM      30.07F
LITCHFIELD     CLEAR     68  66  94 CALM      30.09R
BUFFALO        CLEAR     67  62  84 CALM      30.08S
MAPLE LAKE     CLEAR     65  63  94 CALM      30.08S
$$
MNZ037-044-045-052-053-020500-
   East Central Minnesota

CITY           SKY/WX    TMP DP  RH WIND       PRES   REMARKS
PRINCETON      CLEAR     64  63  94 CALM      30.08S
MORA             N/A     63  61  94 CALM      30.09F FOG
CAMBRIDGE      CLEAR     68  61  77 CALM      30.06S
RUSH CITY      CLEAR     63  61  93 CALM      30.08S
MOOSE LAKE     PTCLDY    59  52  77 NE3       30.07F
HINCKLEY       FAIR      63  63 100 CALM      30.08S
CLOQUET        CLEAR     57  52  82 E3        30.10S
MCGREGOR       CLEAR     63  61  94 SE3       30.08F
$$
MNZ071>073-080-081-089-090-097-098-020500-
   Southwest Minnesota

CITY           SKY/WX    TMP DP  RH WIND       PRES   REMARKS
MONTEVIDEO     CLEAR     66  63  88 CALM      30.09R
GRANITE FALLS  CLEAR     65  62  91 S6        30.09S
CANBY          PTCLDY    65  62  90 CALM      30.09S
MARSHALL       CLEAR     66  59  77 S3        30.09R
REDWOOD FALLS  CLEAR     69  62  78 S6        30.08S
OLIVIA         CLEAR     70  63  78 CALM      30.08R
PIPESTONE      CLEAR     66  59  77 S3        30.12R
WINDOM         CLEAR     64  61  88 CALM      30.11S
WORTHINGTON    CLEAR     64  57  77 CALM      30.14R
JACKSON        CLEAR     64  59  82 SE3       30.12S
TRACY          CLEAR     69  60  73 S6        30.11R
SLAYTON        CLEAR     65  60  82 CALM      30.13R
$$
MNZ065>067-074>077-082>085-091>093-020500-
   South Central Minnesota

CITY           SKY/WX    TMP DP  RH WIND       PRES   REMARKS
MANKATO        CLEAR     72  57  60 SW6       30.09S
NEW ULM        CLEAR     68  64  88 S5        30.08S
ST JAMES       CLEAR     66  61  82 CALM      30.10S
FAIRMONT       CLEAR     64  55  72 S5        30.11S
GLENCOE        CLEAR     68  62  80 CALM      30.07F
FARIBAULT      CLEAR     64  57  77 CALM      30.10R
OWATONNA       CLEAR     64  59  82 CALM      30.10S
WASECA         CLEAR     61  55  82 CALM      30.11S
ALBERT LEA     CLEAR     64  63  94 CALM      30.11S
$$
MNZ078>079-086>088-094>096-020500-
   Southeast Minnesota

CITY           SKY/WX    TMP DP  RH WIND       PRES   REMARKS
ROCHESTER      CLEAR     65  61  87 SW5       30.12S
RED WING       PTCLDY    66  63  88 CALM      30.07S
STANTON        CLEAR     67  62  84 CALM      30.07S
DODGE CENTER   PTCLDY    66  61  82 CALM      30.11S
WINONA         CLEAR     70  63  78 SE3       30.09S
AUSTIN         CLEAR     63  61  94 CALM      30.11S
PRESTON        CLEAR     65  65  98 SW5       30.12S
$$
ABBREVIATIONS USED IN REMARKS
   TC - TEMPERATURES IN CELSIUS
  WCI - WIND CHILL INDEX
   HX - HEAT INDEX
  VSB - VISIBILITY
$$


USA.gov is the U.S. government's official web portal to all federal, state and local government web resources and services.